Location: Bari
(41.1330°N, 16.8500°E)
Time: 02:09:56
(UTC+02:00)

ISS - Pass Details

Date: 14 May 2021
Orbit: 417 x 422 km, 51.6° (Epoch: 14 June)

Event Time Altitude Azimuth Distance (km) Brightness Sun altitude
Exits shadow 01:18:08 13° 341° (NNW) 1,330 -0.5 -29.9°
Maximum altitude 01:18:55 14° 357° (N) 1,288 -0.5 -29.8°
Drops below altitude 10° 01:20:48 10° 31° (NNE) 1,508 -0.2 -29.8°
Sets 01:23:42 0° 58° (ENE) 2,374 0.6 -29.7°
